Regional Weather Roundup
Issued by NWS

Home | Current Version | Previous Version | Text Only | Print | Product List | Glossary Off
Versions: 1 2 3 4 5 6 7 8 9 10 11 12 13 14 15 16 17 18 19 20 21 22 23 24 25 26 27 28 29 30 31 32 33 34 35 36 37 38 39 40 41 42 43 44 45 46 47 48 49 50

000
ASUS43 KMPX 232210
RWRMN
WEATHER ROUNDUP FOR MINNESOTA
NATIONAL WEATHER SERVICE TWIN CITIES/CHANHASSEN MN
500 PM CDT THU OCT 23 2014


NOTE: "FAIR" INDICATES FEW OR NO CLOUDS BELOW 12,000 FEET WITH NO
SIGNIFICANT WEATHER AND/OR OBSTRUCTIONS TO VISIBILITY. N/A MEANS
CURRENT SKY AND/OR WEATHER CONDITIONS ARE NOT AVAILABLE.

MNZ060>063-068>070-232300-
   Twin Cities Metro

CITY           SKY/WX    TMP DP  RH WIND       PRES   REMARKS
TWIN CITIES    SUNNY     67  45  45 W5        29.95S
ST PAUL        SUNNY     66  47  50 SW8       29.95F
CRYSTAL        SUNNY     67  47  48 SW5       29.93F
BLAINE         SUNNY     68  46  45 W3        29.95S
LAKEVILLE      SUNNY     66  43  42 W6        29.95S
EDEN PRAIRIE   SUNNY     68  43  40 W7        29.94S
SOUTH ST PAUL  SUNNY     67  46  47 CALM      29.95S
LAKE ELMO      FAIR      64  52  63 S7        29.97S
$$
MNZ001>005-007-008-013>017-022>024-027-028-232300-
   Northwest Minnesota

CITY           SKY/WX    TMP DP  RH WIND       PRES   REMARKS
BEMIDJI        SUNNY     66  35  32 SW7       29.87R
HALLOCK        MOSUNNY   66  37  34 SW8       29.78S
ROSEAU         SUNNY     64  43  45 SW9       29.80F
WARROAD        SUNNY     63  45  51 SW6       29.80F
THIEF RVR FALL MOSUNNY   64  41  42 S12       29.83S
CROOKSTON      SUNNY     66  43  42 S12       29.82F
FOSSTON        SUNNY     66  36  32 S12       29.85F
DETROIT LAKES  SUNNY     64  41  42 S8        29.89S
MOORHEAD       SUNNY     72  25  17 S9        29.85S
PARK RAPIDS    SUNNY     65  35  33 SW10      29.89S
MAHNOMEN       FAIR      65  38  36 S14       29.85F
$$
MNZ006-009>011-018-025>026-232300-
   North Central Minnesota

CITY           SKY/WX    TMP DP  RH WIND       PRES   REMARKS
BAUDETTE       SUNNY     64  37  36 SW12      29.81S
FLAG ISLAND    MOSUNNY   61  43  51 SW13      29.77S
INTL FALLS     MOCLDY    64  35  34 SW12      29.83R
WASKISH        SUNNY     59  43  55 CALM      29.85S
BIG FORK       SUNNY     64  45  48 SW9       29.87S
LONGVILLE      SUNNY     64  39  39 S3        29.89F
GRAND RAPIDS   SUNNY     64  39  39 SW6       29.90S
CRANE LAKE     CLEAR     63  43  48 SW5       29.87S
ORR            PTCLDY    63  43  48 CALM      29.85R
COOK           PTCLDY    61  48  63 S6        29.89R
WALKER         FAIR      65  38  36 SW8       29.88S
$$
MNZ012-019>021-037-232300-
   Northeast Minnesota

CITY           SKY/WX    TMP DP  RH WIND       PRES   REMARKS
DULUTH         PTCLDY    57  48  72 S7        29.93S
ELY            CLEAR     55  46  71 S6        29.90S
HIBBING        CLEAR     60  49  66 S7        29.90F
EVELETH        CLEAR     57  48  72 S8        29.91F
DULUTH HARBOR  CLEAR     59  52  77 SW6       29.94S
TWO HARBORS    CLOUDY    55  43  62 SW6       29.92S
SILVER BAY     PTCLDY    54  50  87 S6        29.92S
GRAND MARAIS     N/A     48  46  93 CALM      29.95S
G MARAIS ARPRT FOG       45  43  93 CALM      29.94S VSB 3/4
$$
MNZ029>031-032-039>041-046>048-054>057-064-232300-
   West Central Minnesota

CITY           SKY/WX    TMP DP  RH WIND       PRES   REMARKS
FERGUS FALLS   SUNNY     70  32  24 S7        29.88S
WHEATON        SUNNY     68  39  34 SW9       29.90S
MORRIS         SUNNY     68  41  37 SW9       29.90S
ALEXANDRIA     SUNNY     66  41  40 SW9       29.93S
ELBOW LAKE     FAIR      68  38  33 S8        29.89F
WADENA         SUNNY     64  39  39 SW7       29.90S
GLENWOOD       SUNNY     66  43  42 S8        29.93S
APPLETON       SUNNY     73  34  23 SW6       29.91S
BENSON         SUNNY     68  37  32 W7        29.92S
ORTONVILLE     SUNNY     70  41  35 SW8       29.90F
MADISON        SUNNY     73  37  27 SW8       29.92S
WILLMAR          N/A     70  36  28 W7        29.95S
$$
MNZ033>034-036-042>043-049>051-058-059-232300-
   Central Minnesota

CITY           SKY/WX    TMP DP  RH WIND       PRES   REMARKS
ST CLOUD       SUNNY     70  44  39 S6        29.93S
SAUK CENTRE    FAIR      66  38  35 SW8       29.93S
PAYNESVILLE    SUNNY     65  35  33 S8        29.94S
AITKIN         SUNNY     66  48  52 S6        29.90S
PINE RIVER     SUNNY     66  39  37 W3        29.93S
BRAINERD       SUNNY     65  38  36 W10       29.92R
STAPLES        SUNNY     64  36  34 SW6       29.91S
LONG PRAIRIE   FAIR      64  34  32 SW7       29.93S
LITTLE FALLS   SUNNY     66  32  28 SW6       29.93R
LITCHFIELD     SUNNY     70  37  30 W5        29.95R
BUFFALO        SUNNY     66  46  47 CALM      29.95S
MAPLE LAKE     SUNNY     68  46  44 CALM      29.94S
$$
MNZ037-044-045-052-053-232300-
   East Central Minnesota

CITY           SKY/WX    TMP DP  RH WIND       PRES   REMARKS
PRINCETON      SUNNY     66  48  52 S5        29.94S
MORA           SUNNY     63  48  59 S6        29.94F
CAMBRIDGE      SUNNY     66  50  55 SW3       29.92S
RUSH CITY      SUNNY     64  48  54 CALM      29.94S
MOOSE LAKE     SUNNY     61  50  67 S3        29.91S
HINCKLEY       FAIR      61  52  72 CALM      29.94S
CLOQUET        SUNNY     57  48  72 S5        29.93S
MCGREGOR       SUNNY     63  50  63 S5        29.92S
$$
MNZ071>073-080-081-089-090-097-098-232300-
   Southwest Minnesota

CITY           SKY/WX    TMP DP  RH WIND       PRES   REMARKS
MONTEVIDEO     SUNNY     73  39  29 W6        29.93S
GRANITE FALLS  SUNNY     70  37  29 SW9       29.94S
CANBY          SUNNY     69  38  32 SW8       29.93F
MARSHALL       SUNNY     70  39  32 SW10      29.93F
REDWOOD FALLS  SUNNY     71  34  25 W7        29.94S
OLIVIA         SUNNY     70  41  35 W6        29.94S
PIPESTONE      SUNNY     66  43  42 SW8       29.96S
WINDOM         SUNNY     70  34  26 SW8       29.97S
WORTHINGTON    SUNNY     66  43  42 SW7       29.98F
JACKSON        SUNNY     68  34  28 W8        29.98S
TRACY          SUNNY     69  40  35 SW10      29.96S
SLAYTON        SUNNY     67  41  38 SW10      29.98S
$$
MNZ065>067-074>077-082>085-091>093-232300-
   South Central Minnesota

CITY           SKY/WX    TMP DP  RH WIND       PRES   REMARKS
MANKATO        SUNNY     70  37  30 W6        29.96S
NEW ULM        SUNNY     70  41  35 W9        29.95S
ST JAMES       SUNNY     72  30  21 W5        29.96S
FAIRMONT       SUNNY     70  30  23 W10       29.97S
GLENCOE        SUNNY     69  43  39 SW5       29.94S
FARIBAULT      SUNNY     68  39  34 W3        29.96S
OWATONNA       SUNNY     66  37  34 W6        29.97S
WASECA         SUNNY     66  32  28 CALM      29.98S
ALBERT LEA     SUNNY     66  45  45 SW3       29.97F
$$
MNZ078>079-086>088-094>096-232300-
   Southeast Minnesota

CITY           SKY/WX    TMP DP  RH WIND       PRES   REMARKS
ROCHESTER      SUNNY     58  51  78 SE5       30.01S
RED WING       SUNNY     59  52  77 SE7       29.97S
STANTON        SUNNY     66  50  55 SE5       29.95S
DODGE CENTER   SUNNY     63  54  72 SE6       29.98F
WINONA         CLOUDY    54  50  87 CALM      30.02R
AUSTIN         SUNNY     63  52  67 CALM      29.98S
PRESTON        CLOUDY    53  50  90 CALM      30.02S
$$
ABBREVIATIONS USED IN REMARKS
   TC - TEMPERATURES IN CELSIUS
  WCI - WIND CHILL INDEX
   HX - HEAT INDEX
  VSB - VISIBILITY
$$



USA.gov is the U.S. government's official web portal to all federal, state and local government web resources and services.